Regional Weather Roundup
Issued by NWS

Home | Current Version | Previous Version | Text Only | Print | Product List | Glossary On
Versions: 1 2 3 4 5 6 7 8 9 10 11 12 13 14 15 16 17 18 19 20 21 22 23 24 25 26 27 28 29 30 31 32 33 34 35 36 37 38 39 40 41 42 43 44 45 46 47 48 49 50
000
ASUS43 KLSX 212359
RWRMO

WEATHER SUMMARY FOR MISSOURI
NATIONAL WEATHER SERVICE SPRINGFIELD MO
600 PM CST FRI NOV 21 2014

NOTE: "FAIR" INDICATES FEW OR NO CLOUDS BELOW 12,000 FEET WITH NO
       SIGNIFICANT WEATHER AND/OR OBSTRUCTIONS TO VISIBILITY.
       CURRENT SKY AND/OR WEATHER CONDITIONS ARE NOT AVAILABLE FOR
       CHILLICOTHE AND FARMINGTON.

MOZ001>031-035>038-043-044-053-054-220100-
...NORTHERN AND WESTERN MISSOURI...

CITY           SKY/WX    TMP DP  RH WIND       PRES   REMARKS
KANSAS CTY INT LGT RAIN  40  35  83 E10       30.08F
6HR MIN TEMP:  39; 6HR MAX TEMP:  42; 6HR PCP:  0.05;

KANSAS C DTWN  CLOUDY    44  36  73 E3        30.08F
6HR MIN TEMP:  42; 6HR MAX TEMP:  45; 6HR PCP:  0.02;

LEE`S SUMMIT   CLOUDY    44  38  79 SE8       30.09F
6HR MIN TEMP:  42; 6HR MAX TEMP:  45; 6HR PCP:  0.03;

ST JOSEPH      CLOUDY    38  33  82 SE5       30.10F
6HR MIN TEMP:  37; 6HR MAX TEMP:  41; 6HR PCP: TRACE;

CHILLICOTHE      N/A     40  27  59 SE7       30.15F
6HR MIN TEMP:  38; 6HR MAX TEMP:  41;

KIRKSVILLE     CLOUDY    38  21  50 SE12      30.17F
6HR MIN TEMP:  35; 6HR MAX TEMP:  39;


$$
MOZ066>068-077>081-088>096-101>105-220100-
...SOUTHWEST MISSOURI...

CITY           SKY/WX    TMP DP  RH WIND       PRES   REMARKS
SPRINGFIELD    CLOUDY    44  37  76 SE18      30.15S
6HR MIN TEMP:  44; 6HR MAX TEMP:  50;

JOPLIN         CLOUDY    52  44  74 SE9       30.11R
6HR MIN TEMP:  50; 6HR MAX TEMP:  59; 6HR PCP:  0.01;


$$
MOZ032>034-039>042-045>050-055>058-069>072-220100-
...CENTRAL MISSOURI...

CITY           SKY/WX    TMP DP  RH WIND       PRES   REMARKS
COLUMBIA       CLOUDY    44  29  55 SE13      30.17F
6HR MIN TEMP:  39; 6HR MAX TEMP:  45; 6HR PCP: TRACE;

JEFFERSON CITY CLOUDY    46  27  47 SE8       30.20S
6HR MIN TEMP:  39; 6HR MAX TEMP:  48;

ROLLA          CLOUDY    44  30  57 SE12      30.18F
6HR MIN TEMP:  42; 6HR MAX TEMP:  46;

SEDALIA        CLOUDY    42  31  64 E6        30.14F
6HR MIN TEMP:  42; 6HR MAX TEMP:  47; 6HR PCP:  0.07;

WARRENSBURG    CLOUDY    43  36  75 E6        30.11F
OSAGE BEACH    CLOUDY    46  30  53 SE9       30.18S

$$
MOZ051-052-059>065-220100-
...EAST CENTRAL MISSOURI...

CITY           SKY/WX    TMP DP  RH WIND       PRES   REMARKS
ST LOUIS INTL  CLOUDY    42  22  44 SE13      30.29S
6HR MIN TEMP:  39; 6HR MAX TEMP:  43;

SPIRIT OF STL  CLOUDY    42  23  46 E7        30.27S
6HR MIN TEMP:  39; 6HR MAX TEMP:  43;

ST CHARLES     CLOUDY    39  23  52 SE6       30.29S
6HR MIN TEMP:  37; 6HR MAX TEMP:  41;


$$
MOZ072>076-082>087-097>100-106>115-220100-
...SOUTH CENTRAL AND SOUTHEAST MISSOURI...

CITY           SKY/WX    TMP DP  RH WIND       PRES   REMARKS
CAPE GIRARDEAU CLOUDY    44  29  55 E5        30.33S
6HR MIN TEMP:  42; 6HR MAX TEMP:  45;

FARMINGTON     CLOUDY    41  28  60 E12       30.30R
POPLAR BLUFF   LGT RAIN  40  36  86 NE5       30.31S
6HR MIN TEMP:  40; 6HR MAX TEMP:  44; 6HR PCP:  0.01;

WEST PLAINS    CLOUDY    38  35  89 SE7       30.25S
6HR MIN TEMP:  38; 6HR MAX TEMP:  42; 6HR PCP: TRACE;


$$



USA.gov is the U.S. government's official web portal to all federal, state and local government web resources and services.